Jonestown, PA

11:38 AM EST on January 18, 2017 (GMT -0500)
Muir Army Air Field

Weather History for KMUI - October, 2012

Change the Weather History Date:

Sunday, October 14, 2012

  Actual Average Record
Temperature  
Mean Temperature 55 °F -  
Max Temperature 69 °F 61 °F 78 °F (2008)
Min Temperature 42 °F 44 °F 36 °F (2007)
Degree Days  
Heating Degree Days 10    
Growing Degree Days 5 (Base 50)    
Moisture  
Dew Point 45 °F    
Average Humidity 77    
Maximum Humidity 92    
Minimum Humidity 53    
Precipitation  
Precipitation 0.00 in - - ()
Sea Level Pressure  
Sea Level Pressure 30.12 in    
Wind  
Wind Speed 1 mph (ESE)    
Max Wind Speed 10 mph    
Max Gust Speed -    
Visibility 10 miles    
Events      
Averages and records for this station are not official NWS values.
T = Trace of Precipitation, MM = Missing Value Source: NWS Daily Summary

Daily Weather History Graph

Daily Weather History Graph

Search for Another Location

Airport or City:

Trip Planner

Search our weather history database for the weather conditions in past years. The results will help you decide how hot, cold, wet, or windy it might be!

Date:

Astronomy

Oct. 14, 2012 Rise Set
Actual Time 7:16 AM EDT 6:27 PM EDT
Civil Twilight 6:49 AM EDT 6:54 PM EDT
Nautical Twilight 6:17 AM EDT 7:26 PM EDT
Astronomical Twilight 5:45 AM EDT 7:57 PM EDT
Moon 6:13 AM EDT (10/14) 5:45 PM EDT (10/14)
Length of Visible Light 12h 05m
Length of Day
11h 10m
Waning Crescent, 1% of the Moon is Illuminated
Oct 14
Waning Crescent
Oct 15
New
Oct 21
First Quarter
Oct 29
Full
Nov 6
Last Quarter

Hourly Weather History & Observations

Time (EDT) Temp. Dew Point Humidity Pressure Visibility Wind Dir Wind Speed Gust Speed Precip Events Conditions
12:55 AM 42.4 °F 37.4 °F 82% 30.26 in 10.0 mi Calm Calm - N/A   Overcast
1:55 AM 43.5 °F 36.5 °F 76% 30.25 in 10.0 mi Calm Calm - N/A   Mostly Cloudy
2:55 AM 44.4 °F 38.8 °F 81% 30.24 in 10.0 mi Calm Calm - N/A   Mostly Cloudy
3:55 AM 45.1 °F 39.6 °F 81% 30.22 in 10.0 mi Calm Calm - N/A   Overcast
4:55 AM 46.9 °F 39.7 °F 76% 30.21 in 10.0 mi NNE 3.5 mph - N/A   Overcast
5:47 AM 48.2 °F 41.0 °F 76% 30.21 in 10.0 mi Calm Calm - N/A   Light Drizzle
5:52 AM 48.2 °F 41.0 °F 76% 30.21 in 10.0 mi Calm Calm - N/A   Mostly Cloudy
5:55 AM 47.7 °F 40.6 °F 77% 30.21 in 10.0 mi Calm Calm - 0.00 in   Mostly Cloudy
5:59 AM 48.2 °F 41.0 °F 76% 30.20 in 10.0 mi Calm Calm - N/A   Light Drizzle
6:25 AM 46.4 °F 42.8 °F 87% 30.20 in 10.0 mi Calm Calm - N/A   Mostly Cloudy
6:55 AM 46.9 °F 43.2 °F 87% 30.20 in 10.0 mi Calm Calm - 0.00 in   Overcast
7:55 AM 47.8 °F 45.1 °F 90% 30.20 in 10.0 mi Calm Calm - N/A   Overcast
8:55 AM 49.5 °F 44.8 °F 84% 30.21 in 10.0 mi Calm Calm - N/A   Overcast
9:55 AM 50.7 °F 44.8 °F 80% 30.20 in 10.0 mi Calm Calm - N/A   Overcast
10:55 AM 52.2 °F 45.1 °F 77% 30.19 in 10.0 mi Calm Calm - N/A   Overcast
11:55 AM 54.1 °F 45.9 °F 74% 30.18 in 10.0 mi Variable 3.5 mph - N/A   Scattered Clouds
12:55 PM 57.2 °F 47.1 °F 69% 30.14 in 10.0 mi Calm Calm - N/A   Scattered Clouds
1:55 PM 61.7 °F 48.7 °F 62% 30.10 in 10.0 mi Variable 3.5 mph - N/A   Clear
2:55 PM 65.7 °F 48.9 °F 55% 30.06 in 10.0 mi Variable 6.9 mph - N/A   Clear
3:55 PM 68.4 °F 50.7 °F 53% 30.03 in 10.0 mi ESE 8.1 mph - N/A   Clear
4:55 PM 68.9 °F 51.4 °F 54% 30.01 in 10.0 mi South 4.6 mph - N/A   Clear
5:55 PM 67.3 °F 51.6 °F 57% 30.00 in 10.0 mi SSE 10.4 mph - N/A   Clear
6:55 PM 64.4 °F 51.4 °F 63% 29.99 in 10.0 mi SSE 4.6 mph - N/A   Clear
7:55 PM 55.8 °F 51.8 °F 87% 29.98 in 10.0 mi Calm Calm - N/A   Clear
8:55 PM 53.1 °F 50.7 °F 92% 29.96 in 10.0 mi North 3.5 mph - N/A   Clear
9:55 PM 53.2 °F 50.7 °F 91% 29.95 in 10.0 mi Calm Calm - N/A   Clear
10:55 PM 52.9 °F 50.7 °F 92% 29.93 in 10.0 mi NNE 3.5 mph - N/A   Partly Cloudy
11:55 PM 53.8 °F 50.5 °F 89% 29.92 in 10.0 mi Calm Calm - N/A   Partly Cloudy